Regional Weather Roundup
Issued by NWS

Home | Current Version | Previous Version | Graphics & Text | Print | Product List | Glossary Off
Versions: 1 2 3 4 5 6 7 8 9 10 11 12 13 14 15 16 17 18 19 20 21 22 23 24 25 26 27 28 29 30 31 32 33 34 35 36 37 38 39 40 41 42 43 44 45 46 47 48 49 50

000
ASUS43 KTOP 061359
RWRKS

WEATHER ROUNDUP FOR KANSAS
NATIONAL WEATHER SERVICE GOODLAND KS
900 AM CDT WED MAY 06 2015

NOTE:  "FAIR" INDICATES FEW OR NO CLOUDS BELOW 12,000 FEET WITH NO
SIGNIFICANT WEATHER AND/OR OBSTRUCTIONS TO VISIBILITY.

KSZ001>006-013>018-027>032-041>047-061500-
NORTHWEST KANSAS

CITY           SKY/WX    TMP DP  RH WIND       PRES   REMARKS
GOODLAND       CLOUDY    52  51  97 S14       29.69F
HAYS           CLOUDY    59  52  77 S20G25    29.74F
HILL CITY      CLOUDY    62  56  80 S15G22    29.72F
RUSSELL        CLOUDY    61  58  90 S21G29    29.74F
$$

KSZ061>065-074>080-084>089-061500-
SOUTHWEST KANSAS

CITY           SKY/WX    TMP DP  RH WIND       PRES   REMARKS
DODGE CITY     CLOUDY    58  55  90 S18G24    29.74F
ELKHART          N/A     54  44  69 SW13        N/A
GARDEN CITY    CLOUDY    55  54  96 S20       29.70S
GREAT BEND     CLOUDY    59  54  82 S21G29    29.77S
LIBERAL        MOSUNNY   61  55  82 S22       29.74S
$$

KSZ066>073-081>083-090>101-061500-
SOUTHEAST KANSAS

CITY           SKY/WX    TMP DP  RH WIND       PRES   REMARKS
CHANUTE        LGT RAIN  61  59  93 S15       29.95R
COFFEYVILLE    CLOUDY    62  59  90 S14G23    29.99R
HUTCHINSON     CLOUDY    61  58  90 SE20G29   29.83S FOG
MEDICINE LODGE   N/A     62  62 100 S12G22    29.81S
NEWTON         CLOUDY    61  55  82 S18G24    29.88S
PARSONS        CLOUDY    63  60  90 S8        29.99R
WICHITA INTL   LGT RAIN  61  58  90 SE24G32   29.86S
WICHITA JABRA  HVY RAIN  60  60 100 S21G26    29.87
WICHITA MCCONL LGT RAIN  61  59  94 SE16G24   29.87S
WINFIELD       CLOUDY    60  58  92 SE16      29.92R
$$

KSZ007>012-019>026-033>040-048>060-102>105-061500-
NORTHEAST KANSAS

CITY           SKY/WX    TMP DP  RH WIND       PRES   REMARKS
CONCORDIA      CLOUDY    63  58  83 S20G28    29.80S
EMPORIA        LGT RAIN  60  57  89 S23G29    29.90R
LAWRENCE       PTSUNNY   65  59  81 S15G23    29.92R
MANHATTAN      CLOUDY    64  59  83 S16G29    29.85R
OLATHE IND     CLOUDY    65  59  81 S17G29    29.95R
OLATHE EXE     CLOUDY    65  60  84 S15G24    29.94R
SALINA         CLOUDY    63  58  83 S16G25    29.82R
TOPEKA BILLARD PTSUNNY   66  60  81 S14       29.90R
TOPEKA FORBES  PTSUNNY   66  59  78 S15G22    29.89S
$$



USA.gov is the U.S. government's official web portal to all federal, state and local government web resources and services.